Location: Unspecified
(48.2082°N, 0.0000°E)
Time: 11:42:59
(UTC+00:00)

A-11 Canister half - Pass Details

Date: 26 June 2019
Orbit: 1514 x 1685 km, 47.2° (Epoch: 19 July)

Event Time Altitude Azimuth Distance (km) Brightness Sun altitude
Rises 11:59:42 0° 263° (W) 4,894 11.7 65.1°
Reaches altitude 10° 12:02:52 10° 263° (W) 3,889 11.3 65.2°
Maximum altitude 12:12:50 85° 177° (S) 1,613 10.9 65.1°
Drops below altitude 10° 12:22:25 10° 90° (E) 3,753 11.1 64.8°
Sets 12:25:25 0° 90° (E) 4,717 11.5 64.7°
